Home > Weather > Syracuse > Past weeks

Flag for U.S.A. Weather for the Past 2 Weeks in Syracuse, New York, U.S.A.

Now
30 °F

Mostly cloudy.


Feels Like: 23 °F
Forecast: 27 / 38 °F
Wind: 7 mph from East

Location: Syracuse Hancock International Airport

Current Time: Feb 8, 2016 at 12:07:50 AM

Latest Report: Feb 7, 2016 at 10:54 PM


Visibility: 10 mi

Pressure: 29.93 "Hg

Humidity: 79%

Dew point: 24 °F

Location of SyracuseLocation

Historic Weather in Syracuse — Graph

°F

Syracuse Temperature Yesterday

Maximum temperature yesterday: 44 °F (at 2:54 PM)
Minimum temperature yesterday: 24 °F (at 6:54 AM)
Average temperature yesterday: 33 °F

High & Low Weather Summary for the Past Weeks

 TemperatureHumidityPressure
High54 °F (Jan 31, 7:54 PM)96% (Jan 27, 10:00 AM)30.35 "Hg (Jan 27, 10:00 AM)
Low8 °F (Jan 24, 3:54 AM)41% (Jan 30, 1:54 PM)29.46 "Hg (Jan 29, 4:54 AM)
Average34 °F70%29.97 "Hg
* Reported Jan 23 9:54 PM — Feb 7 9:54 PM, Syracuse, Weather by CustomWeather, © 2016

Note: Actual official high and low records may vary slightly from our data, if they occured in-between our weather recording intervals... More about our weather records

Advertising

Syracuse Weather History for the Previous 24 Hours

 ConditionsComfort  
Time TempWeatherWind HumidityBarometerVisibility
9:54 PM
Sun, Feb 7
31 °FPassing clouds.6 mph76%29.95 "Hg10 mi
8:54 PM31 °FPartly cloudy.8 mph76%29.96 "Hg10 mi
7:54 PM33 °FPartly cloudy.8 mph70%29.96 "Hg10 mi
6:54 PM34 °FPartly cloudy.6 mph67%29.99 "Hg10 mi
5:54 PM36 °FPartly cloudy.6 mph62%30.01 "Hg10 mi
4:54 PM39 °FBroken clouds.8 mph55%29.99 "Hg10 mi
3:54 PM41 °FBroken clouds.7 mph51%30.00 "Hg10 mi
2:54 PM44 °FPartly sunny.7 mph47%30.00 "Hg10 mi
1:54 PM43 °FScattered clouds.6 mph43%30.03 "Hg10 mi
12:54 PM41 °FPassing clouds.7 mph49%30.06 "Hg10 mi
11:54 AM39 °FScattered clouds.7 mph57%30.11 "Hg10 mi
10:54 AM37 °FScattered clouds.No wind65%30.12 "Hg10 mi
9:54 AM36 °FPassing clouds.3 mph67%30.12 "Hg10 mi
8:54 AM30 °FSunny.No wind85%30.12 "Hg10 mi
7:54 AM25 °FPassing clouds.No wind92%30.13 "Hg10 mi
6:54 AM24 °FPassing clouds.No wind91%30.14 "Hg10 mi
5:54 AM25 °FPassing clouds.No wind88%30.14 "Hg10 mi
4:54 AM25 °FPassing clouds.No wind85%30.14 "Hg10 mi
3:54 AM26 °FPassing clouds.No wind84%30.14 "Hg10 mi
2:54 AM28 °FPassing clouds.6 mph78%30.14 "Hg10 mi
1:54 AM31 °FOvercast.No wind69%30.12 "Hg10 mi
12:54 AM31 °FOvercast.3 mph76%30.13 "Hg10 mi
Weather by CustomWeather, © 2016

See weather overviewHow to use our weather pages